Wind_Speed
54 54 54 54 55 55 55 55 54 54 54 53 53 54 55 55 54 54 55 54 53 52 51 51 51 52 51 50 49 48 47 47 46 45 45 44 44 43
55 55 56 56 56 57 57 57 56 56 54 53 54 55 55 55 55 54 55 55 54 53 53 52 52 53 53 52 51 50 49 48 48 48 47 47 47 45
56 56 57 57 58 58 58 58 58 58 57 55 56 57 57 57 57 56 56 56 56 55 55 54 54 54 54 54 53 52 51 50 50 50 49 49 48 48
56 57 57 57 58 58 59 58 58 59 59 58 57 58 58 58 58 58 58 58 58 57 57 56 56 56 56 56 55 54 53 52 52 51 50 50 49 49
56 57 58 57 57 58 59 59 59 59 59 58 57 58 59 59 59 59 59 59 60 60 60 59 59 59 59 59 58 56 56 55 54 52 51 51 51 50
57 58 58 58 58 58 59 60 60 59 59 58 57 57 58 59 59 59 59 58 59 60 61 61 60 60 60 60 59 58 57 57 55 54 52 52 52 51
58 58 59 58 58 58 58 59 60 59 59 59 59 59 58 58 59 59 59 58 58 59 60 61 61 60 60 59 59 58 57 56 56 55 54 53 53 52
59 58 58 58 58 58 59 60 59 59 58 59 58 58 58 58 59 60 60 60 59 59 61 61 62 61 60 60 59 58 57 56 56 56 55 55 55 54
58 59 59 58 58 58 58 59 59 59 59 59 59 59 58 59 60 60 61 60 60 59 60 61 61 60 59 58 57 57 57 58 57 57 57 56 55 55
56 57 57 58 57 57 58 58 58 58 59 59 59 59 59 59 60 60 61 61 61 61 60 60 60 60 59 58 57 56 58 59 58 58 57 57 57 56
54 55 56 56 57 57 58 58 58 58 59 60 60 60 60 60 60 61 61 61 61 60 60 60 60 60 60 59 57 57 58 59 59 58 58 58 58 59
53 54 54 55 56 57 57 57 57 58 59 60 60 60 60 60 61 60 60 61 60 59 59 60 60 61 61 59 58 57 58 58 59 59 59 59 59 60
52 52 52 53 54 55 56 56 57 57 58 58 58 59 59 60 60 60 59 60 60 58 58 59 60 61 60 59 58 57 57 57 58 59 59 59 60 61
51 51 51 51 53 54 55 55 56 57 57 57 58 58 58 58 58 58 58 59 59 59 59 59 59 60 60 59 59 58 58 58 59 59 60 61 61 62
49 49 50 51 52 53 53 54 54 55 55 55 56 56 56 57 57 57 57 57 58 58 58 58 59 60 60 59 59 59 59 59 60 61 62 62 62 62
48 49 49 50 51 52 52 52 52 53 53 53 53 53 54 55 56 56 56 57 58 58 58 58 59 59 59 59 59 60 60 59 59 60 61 62 61 61
46 47 47 48 49 50 50 50 50 51 51 52 52 52 52 53 53 54 55 55 56 56 57 57 57 57 57 58 58 58 59 59 58 59 60 60 60 60
46 45 45 46 46 47 49 49 50 50 50 50 50 50 50 51 51 52 52 52 52 52 53 54 55 55 55 56 57 57 57 57 57 57 58 57 57 57
44 44 45 45 45 46 47 48 48 48 48 47 48 48 48 49 48 48 49 50 49 49 50 52 53 53 54 54 54 55 55 56 56 55 55 55 55 54
42 42 42 43 43 43 44 45 45 45 45 45 45 45 45 45 45 45 46 47 47 47 48 50 51 51 51 51 52 52 53 53 53 53 53 53 52 52
38 39 39 39 39 40 41 42 42 42 42 41 41 41 42 42 43 43 44 45 45 46 46 47 47 48 48 49 50 50 49 50 50 51 51 51 50 50
33 34 35 35 36 37 37 38 38 38 38 37 37 38 39 40 41 41 41 42 43 44 44 44 44 45 46 47 47 47 47 47 48 48 48 48 48 49
29 30 31 32 32 33 33 34 34 34 34 34 34 35 36 37 37 38 39 40 41 42 43 42 42 43 44 45 45 44 44 45 45 45 45 46 47 48
Wind_Direction
256 256 257 257 258 257 258 257 258 257 255 254 254 254 254 254 254 253 253 252 253 253 252 252 252 252 252 252 252 252 253 255 257 258 259 261 262 263
256 256 256 257 258 258 258 258 258 258 256 255 254 254 254 254 254 254 252 252 251 252 252 253 252 251 252 252 252 252 253 255 257 259 260 260 261 262
256 256 257 257 257 257 258 258 258 257 257 255 254 254 254 254 254 254 253 252 252 251 252 253 253 252 252 253 252 252 253 254 256 258 259 260 260 261
256 257 257 258 258 257 257 257 258 257 258 256 255 254 255 254 254 255 255 253 252 252 252 253 253 252 252 253 252 252 252 254 255 257 258 259 260 261
257 258 258 258 258 258 257 257 257 257 257 257 256 255 255 255 255 255 255 254 253 252 252 252 253 253 251 252 253 253 253 253 254 256 257 258 259 259
259 259 259 258 258 258 257 256 256 256 256 256 256 255 255 255 255 255 255 255 254 253 253 252 252 252 251 251 252 253 253 253 253 254 255 257 258 259
259 259 258 258 257 257 256 255 255 255 255 256 256 256 255 255 255 254 254 254 255 255 253 252 252 251 251 250 250 251 252 252 252 252 254 255 257 259
260 260 259 258 257 256 255 255 255 254 255 255 255 256 256 255 255 254 254 254 255 255 254 252 251 251 250 250 250 251 252 252 251 252 254 255 257 258
262 260 259 258 257 256 255 255 254 254 255 255 255 256 256 255 255 254 254 254 254 254 253 251 250 250 249 249 249 250 251 252 252 253 255 255 257 258
262 260 259 257 256 256 256 255 255 255 254 255 255 256 256 256 256 256 254 254 254 253 252 251 250 249 249 249 249 250 251 252 253 254 255 257 258 259
262 261 260 258 257 257 257 257 256 256 255 255 255 256 256 256 257 256 255 255 254 254 253 252 249 248 248 249 249 250 251 253 254 256 256 258 258 259
262 261 261 259 258 257 258 258 257 256 256 256 256 256 256 256 256 255 255 254 254 253 252 251 249 248 247 248 249 250 251 253 254 255 257 258 259 260
262 262 261 260 259 258 258 258 257 257 256 256 256 256 256 256 256 255 255 253 253 252 251 250 249 248 247 247 248 249 251 252 254 255 256 258 259 260
263 262 261 260 259 259 259 259 258 257 257 256 255 256 255 254 254 254 252 252 252 251 250 250 249 248 247 247 248 249 251 253 254 255 256 258 259 260
263 262 261 260 259 258 258 259 259 258 257 256 255 255 254 253 253 253 252 252 251 250 250 249 249 248 248 248 249 250 252 253 255 256 257 258 260 261
263 262 261 260 259 259 258 259 259 259 258 257 256 255 254 253 252 251 252 251 249 248 249 249 248 248 248 248 250 251 252 253 254 255 257 258 259 261
263 261 260 259 260 259 259 259 260 260 260 258 256 255 254 253 252 251 250 249 248 247 247 247 247 247 247 248 250 252 252 253 254 255 256 258 259 260
264 262 261 261 261 260 259 259 259 260 259 259 256 255 254 252 251 251 251 249 248 247 245 246 247 248 248 249 250 251 252 253 254 255 256 258 260 261
265 264 263 262 261 260 259 259 259 259 259 257 256 255 254 253 251 250 249 248 246 245 245 247 248 249 250 250 250 251 253 254 255 256 257 259 260 261
266 265 263 262 261 259 258 258 258 258 257 257 255 254 253 251 249 248 248 247 245 244 245 247 247 249 250 250 250 251 253 256 257 257 257 258 259 260
267 265 264 263 262 261 259 258 257 256 256 255 252 251 251 250 249 248 248 246 244 244 245 246 246 248 249 250 250 251 253 255 257 257 257 258 259 260
268 266 264 264 263 261 258 256 254 253 252 251 249 249 249 249 248 247 246 245 244 244 245 247 247 247 248 249 250 251 253 254 255 256 257 258 259 260
269 266 265 264 262 259 257 254 253 252 250 248 249 249 248 247 246 246 245 245 245 245 247 248 248 247 249 251 251 250 251 251 252 254 256 258 259 259
Height
5637 5639 5640 5642 5644 5646 5647 5649 5651 5654 5658 5661 5662 5664 5666 5669 5671 5674 5678 5681 5684 5687 5691 5694 5697 5701 5704 5708 5711 5714 5717 5719 5722 5724 5726 5728 5729 5730
5621 5624 5625 5627 5628 5630 5631 5633 5635 5638 5642 5646 5647 5649 5651 5654 5657 5660 5663 5666 5670 5673 5676 5680 5683 5687 5690 5694 5697 5701 5704 5706 5709 5711 5713 5715 5716 5718
5605 5608 5610 5611 5612 5614 5615 5617 5619 5622 5625 5630 5632 5633 5635 5638 5641 5644 5648 5651 5654 5658 5661 5665 5668 5672 5675 5679 5682 5686 5690 5693 5695 5697 5699 5701 5703 5705
5589 5591 5593 5595 5596 5598 5600 5602 5604 5606 5609 5613 5616 5618 5620 5623 5625 5629 5632 5635 5639 5643 5646 5649 5653 5656 5660 5664 5667 5671 5675 5678 5681 5683 5686 5688 5689 5691
5573 5575 5577 5578 5580 5581 5583 5586 5588 5590 5592 5595 5599 5601 5604 5607 5609 5613 5616 5619 5623 5626 5629 5633 5637 5640 5644 5648 5652 5655 5659 5663 5666 5668 5670 5673 5675 5677
5556 5558 5559 5561 5563 5564 5567 5569 5571 5574 5576 5579 5582 5585 5588 5590 5593 5596 5600 5603 5606 5609 5612 5616 5620 5623 5628 5632 5636 5640 5644 5647 5650 5653 5656 5658 5660 5663
5539 5540 5542 5544 5546 5547 5550 5552 5554 5557 5559 5562 5566 5569 5571 5574 5577 5580 5583 5586 5590 5593 5595 5600 5604 5608 5611 5616 5620 5624 5628 5631 5635 5638 5641 5643 5646 5648
5522 5523 5525 5527 5529 5531 5533 5535 5538 5540 5543 5546 5549 5552 5555 5558 5560 5563 5565 5569 5575 5579 5579 5583 5586 5590 5595 5600 5604 5608 5612 5615 5619 5622 5625 5628 5630 5633
5505 5506 5508 5510 5511 5513 5515 5518 5520 5523 5526 5529 5532 5536 5538 5541 5543 5546 5549 5552 5557 5560 5561 5566 5570 5575 5580 5584 5588 5592 5596 5600 5604 5607 5610 5613 5615 5617
5488 5489 5491 5493 5494 5496 5498 5501 5503 5506 5509 5513 5516 5519 5521 5523 5525 5528 5531 5535 5539 5542 5544 5549 5554 5559 5563 5568 5572 5577 5581 5584 5588 5592 5594 5597 5599 5602
5472 5473 5474 5476 5478 5480 5482 5485 5488 5490 5492 5496 5499 5501 5504 5506 5508 5510 5514 5517 5522 5526 5529 5532 5537 5542 5547 5552 5557 5561 5565 5568 5572 5576 5578 5581 5583 5585
5456 5457 5458 5460 5461 5463 5465 5468 5471 5474 5476 5479 5482 5484 5487 5489 5491 5494 5497 5500 5504 5509 5513 5516 5521 5525 5531 5537 5541 5545 5549 5552 5556 5559 5562 5564 5566 5568
5440 5441 5442 5444 5445 5447 5449 5452 5455 5457 5459 5462 5464 5467 5469 5472 5475 5477 5480 5483 5487 5493 5497 5499 5504 5508 5513 5520 5525 5529 5533 5536 5540 5543 5545 5548 5550 5551
5425 5426 5427 5428 5430 5431 5433 5436 5438 5440 5442 5444 5447 5450 5452 5455 5458 5460 5463 5466 5470 5476 5480 5483 5487 5492 5497 5502 5508 5513 5517 5520 5523 5526 5529 5531 5532 5534
5410 5411 5412 5413 5414 5416 5418 5420 5421 5423 5425 5428 5431 5433 5436 5438 5441 5443 5447 5450 5454 5458 5462 5466 5471 5475 5480 5485 5491 5496 5500 5503 5506 5508 5511 5514 5515 5516
5394 5396 5397 5397 5399 5400 5402 5404 5405 5407 5409 5412 5414 5416 5418 5421 5424 5427 5430 5433 5437 5442 5446 5450 5454 5458 5463 5468 5474 5478 5482 5486 5489 5491 5493 5496 5498 5499
5380 5381 5382 5383 5384 5386 5388 5389 5391 5392 5394 5396 5398 5400 5402 5405 5408 5411 5414 5417 5421 5426 5430 5434 5438 5442 5447 5452 5456 5461 5464 5468 5471 5474 5476 5478 5481 5482
5366 5367 5368 5369 5370 5372 5373 5375 5376 5378 5379 5381 5383 5385 5387 5390 5393 5396 5398 5402 5406 5410 5415 5419 5423 5427 5432 5436 5440 5444 5448 5451 5454 5456 5459 5461 5464 5466
5353 5354 5355 5356 5357 5357 5359 5361 5362 5364 5365 5367 5369 5371 5373 5376 5378 5381 5385 5388 5392 5397 5401 5405 5409 5413 5417 5422 5427 5429 5432 5435 5437 5440 5442 5445 5448 5450
5341 5341 5342 5343 5343 5344 5345 5347 5349 5350 5352 5354 5356 5358 5360 5363 5366 5369 5372 5375 5379 5384 5388 5392 5395 5399 5403 5408 5412 5415 5416 5419 5422 5425 5427 5429 5432 5434
5329 5329 5330 5330 5331 5332 5333 5334 5336 5338 5340 5342 5344 5346 5349 5351 5354 5357 5360 5364 5367 5372 5376 5380 5383 5386 5389 5393 5397 5400 5403 5404 5407 5410 5412 5415 5417 5419
5319 5318 5318 5319 5319 5320 5321 5323 5324 5326 5328 5331 5333 5336 5338 5340 5343 5346 5349 5352 5356 5360 5364 5367 5370 5373 5376 5380 5384 5387 5390 5392 5393 5395 5398 5400 5402 5404
5309 5308 5308 5309 5309 5310 5311 5312 5314 5316 5318 5320 5323 5325 5328 5330 5333 5336 5339 5342 5345 5349 5352 5355 5358 5361 5365 5368 5371 5375 5377 5379 5381 5383 5385 5386 5388 5390